Find Starlink 34432

NORAD ID: 64426 Int'l Des: 2025-129 Owner: SPXS Country: US Constellation: starlink operational
LEOCIRCULAR

当前视图

正在加载3D地球...

About Starlink 34432

Starlink 34432 (NORAD 64426) is a starlink constellation satellite (v2 mini) launched Jun 17, 2025 by SPXS of US. It operates in LEO, CIRCULAR orbit with a mass of 575.00 kg.

即将过境

Passes for default location (London). Set your location on the main map for personalized predictions.

高度历史

Loading altitude history...

两行轨道根数

1 64426U 25129Q 26263.43853329 .00011122 00000-0 39090-3 0 9998
2 64426 69.9995 301.2326 0003982 270.4333 89.6385 15.29567372 70454
Epoch: Sep 20, 2026 • Age: 16 hours

当前状态

高度 490.7 km
远地点 / 近地点 N/A
速度 7.62 km/s
星下点 67.18°N, 20.17°E
发射日期 Jun 17, 2025
运行时间 1.2 years
类型 internet

技术详情

分类 Payload
质量 575.00 kg
干质量 530.00 kg
长度 0.30 m
跨度 29.00 m
形状 ? Box + pan
制造商 SPXS
平台类型 Starlink V2MO
阶段状态 In Orbit
所有者/国家 SPXS/US

Most Searched